KMF927 OAKB-OPIS

Flight info

Callsign KMF927
Flight time 0h 34m
Altitude 29000
Route GIDOG M696 LAJAK/N0457F270 G796 HANGU J139 KALMI
Aircraft A343/H-SDE2E3FGHIJ4J5M1RWXY/LB1D1

Departure

Time 2026-05-09 02:08
Airport Kabul International Airport (OAKB)

Arrival

Time 2026-05-09 02:42
Airport Islamabad International Airport (OPIS)
Time Latitude Longitude Altitude Speed Heading
2026-05-09 01:45 34.56237 69.21036 5867 ft 0 kts 201°
2026-05-09 01:59 34.56238 69.21037 5865 ft 2 kts 201°
2026-05-09 01:59 34.56262 69.21048 5864 ft 4 kts 201°
2026-05-09 01:59 34.56287 69.21060 5873 ft 3 kts 201°
2026-05-09 02:00 34.56309 69.21067 5864 ft 4 kts 168°
2026-05-09 02:00 34.56326 69.21051 5866 ft 4 kts 111°
2026-05-09 02:00 34.56332 69.21029 5867 ft 1 kts 111°
2026-05-09 02:00 34.56334 69.21025 5867 ft 0 kts 111°
2026-05-09 02:02 34.56333 69.21026 5867 ft 0 kts 111°
2026-05-09 02:02 34.56332 69.21031 5867 ft 2 kts 111°
2026-05-09 02:03 34.56320 69.21070 5868 ft 7 kts 110°
2026-05-09 02:03 34.56297 69.21141 5870 ft 11 kts 110°
2026-05-09 02:03 34.56268 69.21234 5869 ft 13 kts 110°
2026-05-09 02:03 34.56232 69.21352 5869 ft 17 kts 111°
2026-05-09 02:04 34.56196 69.21509 5870 ft 21 kts 97°
2026-05-09 02:04 34.56183 69.21681 5864 ft 20 kts 94°
2026-05-09 02:04 34.56169 69.21841 5870 ft 19 kts 95°
2026-05-09 02:04 34.56160 69.21994 5865 ft 17 kts 96°
2026-05-09 02:05 34.56149 69.22133 5873 ft 16 kts 95°
2026-05-09 02:05 34.56138 69.22261 5871 ft 15 kts 100°
2026-05-09 02:05 34.56111 69.22387 5869 ft 17 kts 105°
2026-05-09 02:05 34.56072 69.22535 5871 ft 20 kts 108°
2026-05-09 02:06 34.56031 69.22697 5870 ft 21 kts 107°
2026-05-09 02:06 34.55990 69.22867 5869 ft 20 kts 105°
2026-05-09 02:06 34.56014 69.22998 5872 ft 12 kts 34°
2026-05-09 02:07 34.56144 69.22948 5867 ft 17 kts 291°
2026-05-09 02:07 34.56225 69.22648 5871 ft 63 kts 287°
2026-05-09 02:07 34.56404 69.21940 5867 ft 110 kts 287°
2026-05-09 02:07 34.56670 69.20889 5870 ft 149 kts 288°
2026-05-09 02:08 34.57022 69.19529 6006 ft 181 kts 287°
2026-05-09 02:08 34.57412 69.18100 6754 ft 176 kts 289°
2026-05-09 02:08 34.57849 69.16679 7353 ft 186 kts 295°
2026-05-09 02:08 34.58755 69.15539 7817 ft 197 kts 334°
2026-05-09 02:09 34.60117 69.15522 8289 ft 209 kts 21°
2026-05-09 02:09 34.61135 69.16756 8967 ft 213 kts 62°
2026-05-09 02:09 34.61469 69.18532 9489 ft 227 kts 91°
2026-05-09 02:09 34.61039 69.20509 9217 ft 264 kts 118°
2026-05-09 02:10 34.59964 69.22487 9467 ft 291 kts 125°
2026-05-09 02:10 34.58774 69.24526 10149 ft 300 kts 124°
2026-05-09 02:10 34.57540 69.26653 10560 ft 318 kts 124°
2026-05-09 02:10 34.56233 69.28907 10895 ft 336 kts 124°
2026-05-09 02:11 34.54856 69.31281 11210 ft 353 kts 124°
2026-05-09 02:11 34.53406 69.33776 11562 ft 369 kts 124°
2026-05-09 02:11 34.51919 69.36329 11952 ft 380 kts 125°
2026-05-09 02:11 34.50355 69.39010 12482 ft 387 kts 125°
2026-05-09 02:12 34.48810 69.41656 13031 ft 392 kts 125°
2026-05-09 02:12 34.47230 69.44379 13628 ft 396 kts 124°
2026-05-09 02:12 34.45638 69.47111 14249 ft 399 kts 125°
2026-05-09 02:12 34.44022 69.49870 14777 ft 403 kts 125°
2026-05-09 02:13 34.42390 69.52649 15302 ft 407 kts 125°
2026-05-09 02:13 34.40735 69.55463 15808 ft 412 kts 125°
2026-05-09 02:13 34.39063 69.58308 16358 ft 416 kts 125°
2026-05-09 02:13 34.37378 69.61175 16964 ft 419 kts 125°
2026-05-09 02:14 34.35678 69.64067 17541 ft 423 kts 125°
2026-05-09 02:14 34.33965 69.66979 18126 ft 426 kts 125°
2026-05-09 02:14 34.32242 69.69910 18681 ft 429 kts 125°
2026-05-09 02:14 34.30500 69.72868 19188 ft 433 kts 125°
2026-05-09 02:15 34.28768 69.75807 19665 ft 437 kts 125°
2026-05-09 02:15 34.26987 69.78826 20132 ft 442 kts 125°
2026-05-09 02:15 34.25196 69.81859 20604 ft 446 kts 125°
2026-05-09 02:15 34.23384 69.84925 21089 ft 450 kts 125°
2026-05-09 02:16 34.21549 69.88028 21605 ft 453 kts 125°
2026-05-09 02:16 34.19711 69.91135 22128 ft 456 kts 125°
2026-05-09 02:16 34.17930 69.94324 22577 ft 460 kts 120°
2026-05-09 02:16 34.16330 69.97686 23069 ft 463 kts 118°
2026-05-09 02:17 34.14777 70.01105 23578 ft 466 kts 117°
2026-05-09 02:17 34.13244 70.04580 23955 ft 471 kts 117°
2026-05-09 02:17 34.11731 70.08057 24326 ft 474 kts 116°
2026-05-09 02:17 34.10174 70.11639 24702 ft 477 kts 116°
2026-05-09 02:18 34.08642 70.15155 25060 ft 481 kts 116°
2026-05-09 02:18 34.07077 70.18739 25448 ft 485 kts 116°
2026-05-09 02:18 34.05498 70.22345 25802 ft 488 kts 116°
2026-05-09 02:18 34.03905 70.25973 26196 ft 491 kts 116°
2026-05-09 02:19 34.02298 70.29623 26590 ft 493 kts 116°
2026-05-09 02:19 34.01231 70.32044 26838 ft 495 kts 116°
2026-05-09 02:19 33.99608 70.35723 27190 ft 499 kts 116°
2026-05-09 02:19 33.97977 70.39416 27560 ft 502 kts 116°
2026-05-09 02:20 33.96328 70.43145 27908 ft 505 kts 116°
2026-05-09 02:20 33.94642 70.46872 28234 ft 508 kts 119°
2026-05-09 02:20 33.92622 70.50349 28521 ft 513 kts 129°
2026-05-09 02:20 33.90193 70.53513 28792 ft 516 kts 134°
2026-05-09 02:21 33.87628 70.56570 29000 ft 520 kts 135°
2026-05-09 02:21 33.82376 70.62529 28990 ft 518 kts 136°
2026-05-09 02:22 33.78205 70.67197 29003 ft 518 kts 136°
2026-05-09 02:22 33.73187 70.72834 28867 ft 517 kts 136°
2026-05-09 02:22 33.70564 70.75794 28594 ft 519 kts 135°
2026-05-09 02:23 33.67934 70.78767 28332 ft 518 kts 135°
2026-05-09 02:23 33.65308 70.81731 28065 ft 516 kts 135°
2026-05-09 02:23 33.62700 70.84679 27814 ft 514 kts 135°
2026-05-09 02:23 33.60104 70.87609 27490 ft 510 kts 135°
2026-05-09 02:24 33.57528 70.90513 26958 ft 505 kts 135°
2026-05-09 02:24 33.54975 70.93387 26344 ft 502 kts 135°
2026-05-09 02:24 33.52474 70.96294 25749 ft 498 kts 130°
2026-05-09 02:24 33.50492 70.99577 25172 ft 489 kts 115°
2026-05-09 02:25 33.49280 71.03331 24570 ft 479 kts 99°
2026-05-09 02:25 33.48907 71.07239 24004 ft 469 kts 88°
2026-05-09 02:25 33.48964 71.11126 23411 ft 463 kts 83°
2026-05-09 02:25 33.49214 71.14952 22796 ft 458 kts 81°
2026-05-09 02:26 33.49534 71.18730 22215 ft 453 kts 81°
2026-05-09 02:26 33.49858 71.22474 21646 ft 449 kts 81°
2026-05-09 02:26 33.50157 71.26183 21093 ft 445 kts 82°
2026-05-09 02:26 33.50428 71.29854 20529 ft 441 kts 82°
2026-05-09 02:27 33.50674 71.33503 19982 ft 438 kts 83°
2026-05-09 02:27 33.50904 71.37124 19430 ft 434 kts 83°
2026-05-09 02:27 33.51126 71.40713 18883 ft 431 kts 84°
2026-05-09 02:27 33.51342 71.44282 18324 ft 428 kts 84°
2026-05-09 02:28 33.51556 71.47819 17748 ft 425 kts 84°
2026-05-09 02:28 33.51772 71.51339 17177 ft 421 kts 84°
2026-05-09 02:28 33.51985 71.54818 16626 ft 417 kts 84°
2026-05-09 02:28 33.52195 71.58268 16075 ft 414 kts 84°
2026-05-09 02:29 33.52404 71.61696 15519 ft 411 kts 84°
2026-05-09 02:29 33.52609 71.65090 14983 ft 408 kts 84°
2026-05-09 02:29 33.52814 71.68477 14436 ft 406 kts 84°
2026-05-09 02:29 33.53017 71.71841 13888 ft 404 kts 84°
2026-05-09 02:30 33.53218 71.75195 13308 ft 402 kts 84°
2026-05-09 02:30 33.53416 71.78530 12743 ft 400 kts 84°
2026-05-09 02:30 33.53613 71.81833 12193 ft 397 kts 84°
2026-05-09 02:30 33.53804 71.85082 11664 ft 393 kts 84°
2026-05-09 02:31 33.53999 71.88337 11132 ft 390 kts 84°
2026-05-09 02:31 33.54189 71.91552 10863 ft 380 kts 84°
2026-05-09 02:31 33.54370 71.94648 10757 ft 365 kts 84°
2026-05-09 02:31 33.54541 71.97593 10617 ft 342 kts 84°
2026-05-09 02:32 33.54699 72.00336 10380 ft 317 kts 84°
2026-05-09 02:32 33.54850 72.02925 10142 ft 308 kts 83°
2026-05-09 02:32 33.54912 72.05489 9918 ft 307 kts 88°
2026-05-09 02:32 33.54886 72.08048 9688 ft 306 kts 88°
2026-05-09 02:33 33.54857 72.10592 9433 ft 305 kts 88°
2026-05-09 02:33 33.54835 72.13135 9182 ft 304 kts 88°
2026-05-09 02:33 33.54820 72.15646 8982 ft 296 kts 88°
2026-05-09 02:33 33.54809 72.18047 8704 ft 289 kts 88°
2026-05-09 02:34 33.54800 72.20455 8402 ft 288 kts 88°
2026-05-09 02:34 33.54793 72.22858 8086 ft 288 kts 88°
2026-05-09 02:34 33.54785 72.25255 7775 ft 287 kts 88°
2026-05-09 02:34 33.54777 72.27643 7461 ft 287 kts 89°
2026-05-09 02:35 33.54769 72.30035 7159 ft 286 kts 89°
2026-05-09 02:35 33.54760 72.32415 6854 ft 285 kts 89°
2026-05-09 02:35 33.54751 72.34790 6543 ft 284 kts 89°
2026-05-09 02:35 33.54742 72.37151 6234 ft 283 kts 89°
2026-05-09 02:36 33.54733 72.39482 5929 ft 282 kts 89°
2026-05-09 02:36 33.54793 72.41820 5625 ft 280 kts 82°
2026-05-09 02:36 33.55136 72.44098 5408 ft 273 kts 76°
2026-05-09 02:36 33.55546 72.46317 5274 ft 265 kts 76°
2026-05-09 02:37 33.55937 72.48415 5154 ft 258 kts 76°
2026-05-09 02:37 33.56320 72.50483 5042 ft 251 kts 76°
2026-05-09 02:37 33.56694 72.52512 4846 ft 248 kts 76°
2026-05-09 02:37 33.57063 72.54521 4698 ft 245 kts 76°
2026-05-09 02:38 33.57430 72.56520 4580 ft 244 kts 76°
2026-05-09 02:38 33.57793 72.58511 4462 ft 244 kts 76°
2026-05-09 02:38 33.58082 72.60508 4338 ft 244 kts 86°
2026-05-09 02:38 33.57932 72.62516 4220 ft 242 kts 102°
2026-05-09 02:39 33.57587 72.64491 4118 ft 241 kts 99°
2026-05-09 02:39 33.57291 72.66451 3990 ft 237 kts 99°
2026-05-09 02:39 33.57016 72.68375 3706 ft 235 kts 99°
2026-05-09 02:39 33.56730 72.70248 3431 ft 219 kts 101°
2026-05-09 02:40 33.56460 72.71962 3146 ft 200 kts 100°
2026-05-09 02:40 33.56231 72.73525 2858 ft 181 kts 103°
2026-05-09 02:40 33.55962 72.74920 2589 ft 164 kts 105°
2026-05-09 02:40 33.55705 72.76150 2434 ft 147 kts 100°
2026-05-09 02:41 33.55576 72.77316 2241 ft 140 kts 90°
2026-05-09 02:41 33.55437 72.78488 2045 ft 142 kts 96°
2026-05-09 02:41 33.55260 72.79656 1909 ft 143 kts 99°
2026-05-09 02:41 33.55078 72.80824 1777 ft 141 kts 99°
2026-05-09 02:42 33.54925 72.81838 1766 ft 99 kts 102°
2026-05-09 02:42 33.54829 72.82432 1762 ft 48 kts 102°
2026-05-09 02:42 33.54781 72.82764 1766 ft 37 kts 99°
2026-05-09 02:42 33.54789 72.83042 1767 ft 29 kts 75°
2026-05-09 02:43 33.54847 72.83255 1770 ft 26 kts 71°
2026-05-09 02:43 33.54901 72.83444 1773 ft 13 kts 42°
2026-05-09 02:43 33.54976 72.83475 1774 ft 10 kts 12°
2026-05-09 02:43 33.55043 72.83492 1776 ft 10 kts 12°
2026-05-09 02:44 33.55109 72.83507 1776 ft 10 kts
2026-05-09 02:44 33.55187 72.83520 1777 ft 14 kts 10°
2026-05-09 02:44 33.55292 72.83536 1776 ft 16 kts 347°
2026-05-09 02:44 33.55340 72.83452 1774 ft 2 kts 280°
2026-05-09 02:45 33.55342 72.83440 1777 ft 4 kts 280°
2026-05-09 02:45 33.55353 72.83425 1776 ft 1 kts 336°
2026-05-09 02:45 33.55359 72.83428 1777 ft 2 kts
2026-05-09 02:45 33.55385 72.83434 1778 ft 5 kts 10°
2026-05-09 02:46 33.55425 72.83442 1776 ft 2 kts 10°
2026-05-09 02:46 33.55427 72.83443 1775 ft 0 kts 10°